Regional Weather Roundup
Issued by NWS

Home | Current Version | Previous Version | Graphics & Text | Print | Product List | Glossary On
Versions: 1 2 3 4 5 6 7 8 9 10 11 12 13 14 15 16 17 18 19 20 21 22 23 24 25 26 27 28 29 30 31 32 33 34 35 36 37 38 39 40 41 42 43 44 45 46 47 48 49 50
000
ASUS43 KFSD 300202
RWRSD

WEATHER ROUNDUP FOR SOUTH DAKOTA
NATIONAL WEATHER SERVICE SIOUX FALLS SD
900 PM CDT WED MAR 29 2017

NOTE: "FAIR" INDICATES FEW OR NO CLOUDS BELOW 12,000 FEET WITH NO
SIGNIFICANT WEATHER AND/OR OBSTRUCTIONS TO VISIBILITY.


SDZ001>005-009-010-012>017-300300-
NORTHWEST AND NORTH CENTRAL SOUTH DAKOTA

CITY           SKY/WX    TMP DP  RH WIND       PRES   REMARKS
BUFFALO          N/A     53  36  52 E9        29.83S
FAITH            N/A     45  40  82 MISG      29.93F
MOBRIDGE       CLEAR     50  32  50 SE12      29.94S
$$

SDZ012>016-024>037-041>051-057-063-072>074-300300-
SOUTHWEST AND SOUTH CENTRAL SOUTH DAKOTA

CITY           SKY/WX    TMP DP  RH WIND       PRES   REMARKS
RAPID CTY ARPT PTCLDY    45  38  76 SE9       29.94S
PIERRE         CLEAR     45  33  63 SE10      29.99S
CUSTER         PTCLDY    38  33  82 NE5       29.95F
ELLSWORTH AFB  CLEAR     46  40  79 CALM      29.93S
PHILIP         CLEAR     47  38  71 SE12      29.97R
PINE RIDGE     MOCLDY    44  39  82 E6        29.95F
SPEARFISH      FAIR      45  37  76 S10       29.91F
WINNER         CLOUDY    47  37  68 E6        30.00F
$$

SDZ004>011-016>023-039-040-300300-
NORTHEAST SOUTH DAKOTA

CITY           SKY/WX    TMP DP  RH WIND       PRES   REMARKS
ABERDEEN       CLOUDY    45  34  65 SE16      30.05R
WATERTOWN      MOCLDY    41  36  82 SE10      30.06F
BROOKINGS      CLOUDY    41  36  82 E13       30.05S
SISSETON         N/A     42  37  82 S9        30.09R
$$

SDZ017-020-022-023-036>040-048>070-300300-
SOUTHEAST SOUTH DAKOTA

CITY           SKY/WX    TMP DP  RH WIND       PRES   REMARKS
SIOUX FALLS    CLOUDY    39  39 100 E15       30.02F
HURON          CLOUDY    46  37  71 E12       30.05R
CHAMBERLAIN    CLOUDY    45  37  74 E10       30.02S
MITCHELL       CLOUDY    44  37  76 E12       30.05S
YANKTON        CLOUDY    39  36  87 NE10      30.00S
$$

ABBREVIATIONS USED IN REMARKS
   TC - TEMPERATURE IN CELSIUS
  WCI - WIND CHILL INDEX
   HX - HEAT INDEX
  VSB - VISIBILITY




USA.gov is the U.S. government's official web portal to all federal, state and local government web resources and services.